Weather History for McConnell AFB, KS

Change the Weather History Date:

Sunday, October 7, 2012

  Actual Average Record
Temperature  
Mean Temperature 44 °F -  
Max Temperature 55 °F 71 °F 88 °F (2007)
Min Temperature 33 °F 49 °F 33 °F (2012)
Degree Days  
Heating Degree Days 21    
Moisture  
Dew Point 29 °F    
Average Humidity 59    
Maximum Humidity 95    
Minimum Humidity 31    
Precipitation  
Precipitation 0.00 in - - ()
Sea Level Pressure  
Sea Level Pressure 30.30 in    
Wind  
Wind Speed 7 mph (NW)    
Max Wind Speed 12 mph    
Max Gust Speed -    
Visibility 10 miles    
Events      
Averages and records for this station are not official NWS values.
T = Trace of Precipitation, MM = Missing Value Source: NWS Daily Summary

Daily Weather History Graph

Daily Weather History Graph

Search for Another Location

Airport:

Trip Planner

Search our weather history database for the weather conditions in past years. The results will help you decide how hot, cold, wet, or windy it might be!

Date:

Astronomy

Oct. 07, 2012 Rise Set
Actual Time 7:30 AM CDT 7:02 PM CDT
Civil Twilight 7:04 AM CDT 7:28 PM CDT
Nautical Twilight 6:33 AM CDT 7:58 PM CDT
Astronomical Twilight 6:03 AM CDT 8:29 PM CDT
Moon No Moon Rise 2:03 PM CDT (10/7)
Length of Visible Light 12h 24m
Length of Day
11h 32m
Waning Gibbous, 56% of the Moon is Illuminated
Oct 7
Waning Gibbous
Oct 8
Last Quarter
Oct 15
New
Oct 21
First Quarter
Oct 29
Full

Hourly Weather History & Observations

Time (CDT) Temp. Windchill Dew Point Humidity Pressure Visibility Wind Dir Wind Speed Gust Speed Precip Events Conditions
12:55 AM 41.9 °F 35.9 °F 30.9 °F 65% 30.37 in 10.0 mi North 10.4 mph - N/A   Mostly Cloudy
1:55 AM 40.1 °F 35.3 °F 30.2 °F 68% 30.37 in 10.0 mi North 6.9 mph - N/A   Partly Cloudy
2:55 AM 38.5 °F 33.4 °F 30.6 °F 73% 30.38 in 10.0 mi North 6.9 mph - N/A   Clear
3:55 AM 37.4 °F 31.4 °F 30.9 °F 77% 30.37 in 10.0 mi NNW 8.1 mph - N/A   Clear
4:55 AM 36.3 °F 33.7 °F 32.0 °F 84% 30.37 in 10.0 mi NW 3.5 mph - N/A   Clear
5:55 AM 35.6 °F 29.2 °F 32.7 °F 89% 30.36 in 10.0 mi North 8.1 mph - N/A   Clear
6:55 AM 34.5 °F 27.3 °F 32.4 °F 92% 30.37 in 10.0 mi North 9.2 mph - N/A   Clear
7:55 AM 33.4 °F 29.1 °F 32.2 °F 95% 30.37 in 10.0 mi North 4.6 mph - N/A   Clear
8:55 AM 36.5 °F 31.8 °F 33.6 °F 89% 30.38 in 10.0 mi North 5.8 mph - N/A   Clear
9:55 AM 41.5 °F 38.6 °F 33.8 °F 74% 30.38 in 10.0 mi Variable 4.6 mph - N/A   Clear
10:55 AM 45.1 °F 42.0 °F 31.5 °F 59% 30.36 in 10.0 mi NE 5.8 mph - N/A   Clear
11:55 AM 47.8 °F - 26.4 °F 43% 30.34 in 10.0 mi Variable 3.5 mph - N/A   Clear
12:55 PM 51.1 °F - 24.6 °F 36% 30.32 in 10.0 mi Variable 5.8 mph - N/A   Clear
1:55 PM 53.1 °F - 24.4 °F 33% 30.29 in 10.0 mi Variable 5.8 mph - N/A   Clear
2:55 PM 55.0 °F - 25.0 °F 31% 30.25 in 10.0 mi WSW 9.2 mph - N/A   Clear
3:55 PM 55.4 °F - 25.2 °F 31% 30.22 in 10.0 mi West 9.2 mph - N/A   Clear
4:55 PM 54.5 °F - 24.8 °F 32% 30.20 in 10.0 mi West 6.9 mph - N/A   Clear
5:55 PM 54.5 °F - 25.3 °F 32% 30.19 in 10.0 mi WSW 6.9 mph - N/A   Clear
6:55 PM 51.8 °F - 25.7 °F 36% 30.19 in 10.0 mi SW 4.6 mph - N/A   Clear
7:55 PM 48.9 °F - 26.2 °F 41% 30.20 in 10.0 mi West 3.5 mph - N/A   Clear
8:55 PM 43.9 °F - 28.0 °F 54% 30.21 in 10.0 mi Calm Calm - N/A   Clear
9:55 PM 45.5 °F - 27.3 °F 49% 30.22 in 10.0 mi Calm Calm - N/A   Clear
10:55 PM 40.5 °F 33.6 °F 28.0 °F 61% 30.20 in 10.0 mi SSW 11.5 mph - N/A   Clear
11:55 PM 39.7 °F 34.9 °F 27.1 °F 61% 30.19 in 10.0 mi SW 6.9 mph - N/A   Clear